User: anonymous
Location: Unspecified
(0.0000°N, 0.0000°E)
Time: 02:36:12
(UTC+00:00)
Language:

OPTUS 1C - Orbit

View from above orbital plane
View from above orbital plane
View from above satellite
View from above satellite

Ground track
Ground track

The orbit data is extracted from the following two-line orbital elements,

1 27831U 03028B   14207.63858659 -.00000162  00000-0  10000-3 0  1578
2 27831 000.0616 246.3723 0003917 254.8425 188.8894 01.00270225 40765
Epoch (UTC): 26 July 2014 15:19:33
Eccentricity: 0.0003917
inclination: 0.0616°
perigee height: 35770 km
apogee height: 35803 km
right ascension of ascending node: 246.3723°
argument of perigee: 254.8425°
revolutions per day: 1.00270225
mean anomaly at epoch: 188.8894°
orbit number at epoch: 4076

The dashed part of the orbit path shows where the satellite is in the earth's shadow,  

DLR